KRP502 LBSF-LRTR

Flight info

Callsign KRP502
Flight time 0h 49m
Altitude 36000
Route OGOTA T228 UTEKA L610 DONIV N188 MAVIT
Aircraft A319/M-SDE3FGHIRWY/LB1

Departure

Time 2026-04-23 16:57
Airport Sofia Airport (LBSF)

Arrival

Time 2026-04-23 17:46
Airport Timișoara Traian Vuia International Airport (LRTR)
Time Latitude Longitude Altitude Speed Heading
2026-04-23 16:38 42.69186 23.41252 1750 ft 0 kts 72°
2026-04-23 16:47 42.69184 23.41244 1750 ft 2 kts 72°
2026-04-23 16:47 42.69179 23.41222 1740 ft 2 kts 72°
2026-04-23 16:47 42.69174 23.41201 1746 ft 2 kts 54°
2026-04-23 16:48 42.69162 23.41185 1742 ft 2 kts 22°
2026-04-23 16:48 42.69147 23.41180 1741 ft 2 kts 351°
2026-04-23 16:48 42.69142 23.41180 1741 ft 0 kts 343°
2026-04-23 16:50 42.69145 23.41179 1741 ft 2 kts 343°
2026-04-23 16:51 42.69189 23.41160 1742 ft 10 kts 342°
2026-04-23 16:51 42.69257 23.41155 1747 ft 10 kts 12°
2026-04-23 16:51 42.69327 23.41175 1750 ft 10 kts 12°
2026-04-23 16:51 42.69400 23.41197 1750 ft 11 kts 12°
2026-04-23 16:52 42.69471 23.41227 1750 ft 11 kts 40°
2026-04-23 16:52 42.69483 23.41327 1750 ft 12 kts 95°
2026-04-23 16:52 42.69475 23.41460 1750 ft 16 kts 95°
2026-04-23 16:52 42.69466 23.41607 1750 ft 16 kts 94°
2026-04-23 16:53 42.69458 23.41752 1750 ft 15 kts 95°
2026-04-23 16:53 42.69449 23.41894 1746 ft 15 kts 95°
2026-04-23 16:53 42.69441 23.42033 1751 ft 15 kts 95°
2026-04-23 16:53 42.69432 23.42170 1751 ft 14 kts 95°
2026-04-23 16:54 42.69424 23.42305 1751 ft 14 kts 95°
2026-04-23 16:54 42.69417 23.42435 1751 ft 14 kts 94°
2026-04-23 16:54 42.69409 23.42565 1751 ft 14 kts 95°
2026-04-23 16:54 42.69402 23.42695 1752 ft 14 kts 88°
2026-04-23 16:55 42.69471 23.42749 1746 ft 13 kts 339°
2026-04-23 16:55 42.69528 23.42655 1745 ft 13 kts 304°
2026-04-23 16:55 42.69581 23.42579 1749 ft 8 kts 356°
2026-04-23 16:55 42.69600 23.42528 1750 ft 8 kts 272°
2026-04-23 16:56 42.69602 23.42504 1750 ft 2 kts 274°
2026-04-23 16:56 42.69612 23.42327 1750 ft 53 kts 275°
2026-04-23 16:56 42.69662 23.41501 1752 ft 120 kts 274°
2026-04-23 16:56 42.69747 23.40153 1933 ft 153 kts 276°
2026-04-23 16:57 42.69987 23.38772 2623 ft 149 kts 291°
2026-04-23 16:57 42.70442 23.37520 3296 ft 148 kts 303°
2026-04-23 16:57 42.71108 23.36392 3749 ft 162 kts 318°
2026-04-23 16:57 42.72063 23.35407 4095 ft 183 kts 332°
2026-04-23 16:58 42.73321 23.34727 4458 ft 207 kts 348°
2026-04-23 16:58 42.74831 23.34461 4940 ft 231 kts 355°
2026-04-23 16:58 42.76510 23.34225 5501 ft 252 kts 354°
2026-04-23 16:58 42.78271 23.33970 6504 ft 256 kts 354°
2026-04-23 16:59 42.80048 23.33711 7498 ft 259 kts 353°
2026-04-23 16:59 42.81861 23.33447 8438 ft 265 kts 353°
2026-04-23 16:59 42.83648 23.33186 9339 ft 270 kts 353°
2026-04-23 16:59 42.85564 23.32945 10223 ft 277 kts 355°
2026-04-23 17:00 42.87574 23.32843 10628 ft 301 kts 357°
2026-04-23 17:00 42.89722 23.32829 11208 ft 315 kts 359°
2026-04-23 17:00 42.91936 23.32848 12022 ft 321 kts 359°
2026-04-23 17:00 42.94190 23.32868 12808 ft 326 kts 359°
2026-04-23 17:01 42.96480 23.32875 13698 ft 332 kts 358°
2026-04-23 17:01 42.98807 23.32869 14432 ft 337 kts 357°
2026-04-23 17:01 43.01162 23.32854 15177 ft 341 kts 357°
2026-04-23 17:01 43.03550 23.32835 15889 ft 345 kts 356°
2026-04-23 17:02 43.05147 23.32820 16371 ft 348 kts 356°
2026-04-23 17:02 43.08412 23.32787 17334 ft 354 kts 356°
2026-04-23 17:02 43.10889 23.32757 18056 ft 358 kts 356°
2026-04-23 17:02 43.13397 23.32728 18715 ft 362 kts 356°
2026-04-23 17:03 43.15929 23.32703 19396 ft 365 kts 356°
2026-04-23 17:03 43.18463 23.32542 20044 ft 365 kts 348°
2026-04-23 17:03 43.20912 23.31677 20687 ft 363 kts 335°
2026-04-23 17:03 43.23139 23.30091 21336 ft 361 kts 322°
2026-04-23 17:04 43.25055 23.27887 21994 ft 360 kts 313°
2026-04-23 17:04 43.26859 23.25490 22656 ft 363 kts 313°
2026-04-23 17:04 43.28683 23.23072 23325 ft 365 kts 313°
2026-04-23 17:04 43.30519 23.20644 23895 ft 368 kts 313°
2026-04-23 17:05 43.32374 23.18194 24417 ft 371 kts 313°
2026-04-23 17:05 43.34238 23.15723 24929 ft 374 kts 313°
2026-04-23 17:05 43.36114 23.13233 25441 ft 376 kts 313°
2026-04-23 17:05 43.38005 23.10720 25937 ft 379 kts 313°
2026-04-23 17:06 43.39909 23.08190 26419 ft 382 kts 313°
2026-04-23 17:06 43.41824 23.05645 26900 ft 384 kts 313°
2026-04-23 17:06 43.43753 23.03083 27370 ft 387 kts 313°
2026-04-23 17:06 43.45692 23.00505 27836 ft 389 kts 313°
2026-04-23 17:07 43.47650 22.97902 28302 ft 392 kts 313°
2026-04-23 17:07 43.49613 22.95290 28756 ft 394 kts 313°
2026-04-23 17:07 43.51593 22.92651 29210 ft 397 kts 313°
2026-04-23 17:07 43.53587 22.89989 29642 ft 400 kts 313°
2026-04-23 17:08 43.55588 22.87314 30057 ft 403 kts 313°
2026-04-23 17:08 43.57605 22.84615 30392 ft 406 kts 313°
2026-04-23 17:08 43.59638 22.81899 30717 ft 408 kts 313°
2026-04-23 17:08 43.61686 22.79160 31020 ft 411 kts 313°
2026-04-23 17:09 43.63748 22.76396 31307 ft 414 kts 313°
2026-04-23 17:09 43.65817 22.73612 31598 ft 417 kts 313°
2026-04-23 17:09 43.67898 22.70806 31976 ft 418 kts 313°
2026-04-23 17:09 43.69975 22.68004 32392 ft 417 kts 314°
2026-04-23 17:10 43.72054 22.65203 32803 ft 417 kts 314°
2026-04-23 17:10 43.74136 22.62399 33206 ft 418 kts 314°
2026-04-23 17:10 43.76216 22.59593 33622 ft 418 kts 314°
2026-04-23 17:10 43.78291 22.56786 34020 ft 417 kts 314°
2026-04-23 17:11 43.80364 22.53979 34374 ft 417 kts 314°
2026-04-23 17:11 43.82435 22.51171 34686 ft 417 kts 314°
2026-04-23 17:11 43.84512 22.48350 34996 ft 417 kts 314°
2026-04-23 17:11 43.86582 22.45533 35296 ft 417 kts 314°
2026-04-23 17:12 43.88653 22.42714 35597 ft 418 kts 314°
2026-04-23 17:12 43.90718 22.39900 35883 ft 418 kts 314°
2026-04-23 17:12 43.94797 22.34212 35991 ft 411 kts 313°
2026-04-23 17:13 43.98734 22.28517 35999 ft 408 kts 313°
2026-04-23 17:13 44.02661 22.22819 35993 ft 408 kts 313°
2026-04-23 17:14 44.06604 22.17141 36002 ft 408 kts 313°
2026-04-23 17:14 44.10556 22.11458 35991 ft 409 kts 313°
2026-04-23 17:15 44.14490 22.05767 35995 ft 409 kts 313°
2026-04-23 17:15 44.18443 22.00036 35987 ft 409 kts 314°
2026-04-23 17:16 44.22386 21.94307 35991 ft 409 kts 314°
2026-04-23 17:16 44.26327 21.88575 35983 ft 409 kts 314°
2026-04-23 17:17 44.30287 21.82819 35987 ft 409 kts 314°
2026-04-23 17:17 44.34232 21.77062 35979 ft 409 kts 314°
2026-04-23 17:18 44.40136 21.68418 35987 ft 410 kts 314°
2026-04-23 17:19 44.44068 21.62631 35984 ft 410 kts 314°
2026-04-23 17:19 44.48000 21.56843 35987 ft 411 kts 314°
2026-04-23 17:20 44.51928 21.51064 35985 ft 411 kts 314°
2026-04-23 17:21 44.59809 21.39405 35998 ft 412 kts 314°
2026-04-23 17:21 44.65079 21.31570 35486 ft 413 kts 314°
2026-04-23 17:22 44.67028 21.28672 35232 ft 411 kts 314°
2026-04-23 17:22 44.70957 21.22916 34293 ft 405 kts 320°
2026-04-23 17:23 44.75794 21.19160 33240 ft 396 kts 345°
2026-04-23 17:23 44.78492 21.18524 32739 ft 392 kts 358°
2026-04-23 17:23 44.83883 21.19481 31736 ft 386 kts 11°
2026-04-23 17:24 44.86507 21.20220 31265 ft 383 kts 11°
2026-04-23 17:24 44.89114 21.20955 30795 ft 381 kts 11°
2026-04-23 17:24 44.94275 21.22402 29824 ft 376 kts 11°
2026-04-23 17:25 44.99340 21.23820 28946 ft 367 kts 11°
2026-04-23 17:25 45.01830 21.24525 28530 ft 363 kts 11°
2026-04-23 17:26 45.06742 21.25919 27696 ft 356 kts 12°
2026-04-23 17:26 45.11559 21.27290 26867 ft 350 kts 12°
2026-04-23 17:27 45.16297 21.28640 26022 ft 344 kts 12°
2026-04-23 17:27 45.18634 21.29302 25588 ft 342 kts 11°
2026-04-23 17:27 45.20958 21.29960 25156 ft 339 kts 11°
2026-04-23 17:27 45.23271 21.30602 24683 ft 338 kts
2026-04-23 17:28 45.25612 21.30821 24227 ft 337 kts
2026-04-23 17:28 45.27952 21.30804 23765 ft 336 kts
2026-04-23 17:28 45.30288 21.30790 23251 ft 335 kts
2026-04-23 17:28 45.32612 21.30777 22770 ft 333 kts
2026-04-23 17:29 45.34917 21.30767 22327 ft 330 kts
2026-04-23 17:29 45.37204 21.30758 21884 ft 327 kts
2026-04-23 17:29 45.41730 21.30741 21022 ft 323 kts
2026-04-23 17:30 45.43971 21.30728 20588 ft 321 kts
2026-04-23 17:30 45.48400 21.30705 19953 ft 312 kts
2026-04-23 17:30 45.50533 21.30692 19795 ft 301 kts
2026-04-23 17:31 45.52602 21.30680 19607 ft 294 kts
2026-04-23 17:31 45.54642 21.30671 19238 ft 293 kts
2026-04-23 17:31 45.56670 21.30665 18912 ft 291 kts
2026-04-23 17:31 45.58671 21.31096 18549 ft 290 kts 19°
2026-04-23 17:32 45.60430 21.32455 18260 ft 288 kts 38°
2026-04-23 17:32 45.61743 21.34600 17890 ft 290 kts 58°
2026-04-23 17:32 45.62611 21.37207 17508 ft 290 kts 63°
2026-04-23 17:32 45.63431 21.39825 16938 ft 288 kts 63°
2026-04-23 17:33 45.64246 21.42424 16385 ft 286 kts 63°
2026-04-23 17:33 45.65059 21.45003 15857 ft 284 kts 63°
2026-04-23 17:33 45.65744 21.47638 15339 ft 284 kts 75°
2026-04-23 17:33 45.65887 21.50447 14833 ft 286 kts 92°
2026-04-23 17:34 45.65444 21.53232 14327 ft 289 kts 107°
2026-04-23 17:34 45.64746 21.55918 13834 ft 287 kts 107°
2026-04-23 17:34 45.63395 21.61206 12923 ft 280 kts 106°
2026-04-23 17:35 45.62730 21.63823 12515 ft 282 kts 106°
2026-04-23 17:35 45.61390 21.69082 11730 ft 281 kts 107°
2026-04-23 17:35 45.60727 21.71681 11279 ft 276 kts 106°
2026-04-23 17:36 45.60072 21.74242 10820 ft 273 kts 106°
2026-04-23 17:36 45.59423 21.76779 10385 ft 272 kts 106°
2026-04-23 17:36 45.58856 21.79327 10162 ft 262 kts 94°
2026-04-23 17:36 45.59042 21.81780 10083 ft 241 kts 63°
2026-04-23 17:37 45.59976 21.83663 9764 ft 233 kts 36°
2026-04-23 17:37 45.61405 21.84692 9351 ft 231 kts 17°
2026-04-23 17:37 45.64436 21.86249 8584 ft 232 kts 18°
2026-04-23 17:38 45.66002 21.86647 8233 ft 228 kts 353°
2026-04-23 17:38 45.67431 21.85762 7883 ft 228 kts 320°
2026-04-23 17:38 45.68253 21.83848 7556 ft 232 kts 287°
2026-04-23 17:38 45.68608 21.81597 7209 ft 230 kts 289°
2026-04-23 17:39 45.69137 21.79447 6869 ft 228 kts 294°
2026-04-23 17:39 45.69731 21.77353 6526 ft 227 kts 295°
2026-04-23 17:39 45.70364 21.75277 6130 ft 228 kts 297°
2026-04-23 17:39 45.70971 21.73188 5789 ft 227 kts 294°
2026-04-23 17:40 45.71523 21.71080 5473 ft 225 kts 293°
2026-04-23 17:40 45.72055 21.68994 5169 ft 222 kts 293°
2026-04-23 17:40 45.72582 21.66931 4879 ft 219 kts 293°
2026-04-23 17:40 45.73102 21.64893 4575 ft 217 kts 293°
2026-04-23 17:41 45.73615 21.62879 4277 ft 214 kts 293°
2026-04-23 17:41 45.74625 21.58916 3699 ft 210 kts 293°
2026-04-23 17:41 45.75121 21.56964 3426 ft 207 kts 293°
2026-04-23 17:42 45.76101 21.53108 2856 ft 202 kts 293°
2026-04-23 17:42 45.76569 21.51258 2634 ft 192 kts 293°
2026-04-23 17:42 45.77013 21.49506 2348 ft 183 kts 293°
2026-04-23 17:43 45.77435 21.47839 2098 ft 173 kts 292°
2026-04-23 17:43 45.77821 21.46312 1879 ft 157 kts 293°
2026-04-23 17:43 45.78171 21.44929 1687 ft 139 kts 293°
2026-04-23 17:43 45.78485 21.43687 1501 ft 129 kts 294°
2026-04-23 17:44 45.78786 21.42498 1331 ft 125 kts 293°
2026-04-23 17:44 45.79080 21.41337 1166 ft 124 kts 291°
2026-04-23 17:44 45.79667 21.39012 839 ft 123 kts 291°
2026-04-23 17:45 45.79956 21.37853 687 ft 124 kts 291°
2026-04-23 17:45 45.80541 21.35546 365 ft 122 kts 290°
2026-04-23 17:45 45.80783 21.34581 337 ft 80 kts 290°
2026-04-23 17:46 45.81003 21.33707 348 ft 20 kts 289°
2026-04-23 17:46 45.80967 21.33568 343 ft 16 kts 204°
2026-04-23 17:46 45.80880 21.33514 342 ft 12 kts 217°
2026-04-23 17:47 45.80868 21.33403 351 ft 12 kts 283°
2026-04-23 17:47 45.80898 21.33281 347 ft 13 kts 290°
2026-04-23 17:47 45.80965 21.33013 342 ft 15 kts 290°
2026-04-23 17:48 45.81002 21.32868 348 ft 16 kts 290°
2026-04-23 17:48 45.81040 21.32715 342 ft 17 kts 290°
2026-04-23 17:48 45.81079 21.32560 344 ft 12 kts 289°
2026-04-23 17:48 45.81086 21.32470 342 ft 9 kts 242°
2026-04-23 17:49 45.81057 21.32389 343 ft 9 kts 266°
2026-04-23 17:49 45.81071 21.32323 350 ft 0 kts 290°
2026-04-23 17:49 45.81073 21.32315 348 ft 1 kts 282°
2026-04-23 17:49 45.81063 21.32303 346 ft 3 kts 213°
2026-04-23 17:50 45.81031 21.32287 343 ft 7 kts 200°
2026-04-23 17:50 45.81015 21.32279 351 ft 0 kts 200°